Bogalusa, LA

5:26 AM CST on December 10, 2016 (GMT -0600)
Carr Memorial

Weather History for KBXA - January, 2013

Change the Weather History Date:

Tuesday, January 1, 2013

  Actual Average Record
Temperature  
Mean Temperature 60 °F -  
Max Temperature 70 °F 61 °F 70 °F (2013)
Min Temperature 49 °F 42 °F 38 °F (2015)
Degree Days  
Heating Degree Days 5    
Growing Degree Days 10 (Base 50)    
Moisture  
Dew Point 60 °F    
Average Humidity 99    
Maximum Humidity 100    
Minimum Humidity 74    
Precipitation  
Precipitation 0.49 in - - ()
Sea Level Pressure  
Sea Level Pressure 30.01 in    
Wind  
Wind Speed 6 mph (SW)    
Max Wind Speed 16 mph    
Max Gust Speed 21 mph    
Visibility 8 miles    
Events Rain    
Averages and records for this station are not official NWS values.
T = Trace of Precipitation, MM = Missing Value Source: NWS Daily Summary

Daily Weather History Graph

Daily Weather History Graph

Search for Another Location

Airport or City:

Trip Planner

Search our weather history database for the weather conditions in past years. The results will help you decide how hot, cold, wet, or windy it might be!

Date:

Astronomy

Jan. 01, 2013 Rise Set
Actual Time 6:57 AM CST 5:09 PM CST
Civil Twilight 6:30 AM CST 5:35 PM CST
Nautical Twilight 6:00 AM CST 6:05 PM CST
Astronomical Twilight 5:31 AM CST 6:35 PM CST
Moon 9:21 PM CST (1/1) 9:26 AM CST (1/1)
Length of Visible Light 11h 04m
Length of Day
10h 11m
Waning Gibbous, 83% of the Moon is Illuminated
Jan 1
Waning Gibbous
Jan 4
Last Quarter
Jan 11
New
Jan 18
First Quarter
Jan 26
Full

Hourly Weather History & Observations

Time (CST) Temp. Dew Point Humidity Pressure Visibility Wind Dir Wind Speed Gust Speed Precip Events Conditions
12:15 AM 59.0 °F 59.0 °F 100% 30.07 in 10.0 mi South 5.8 mph - N/A   Overcast
12:35 AM 59.2 °F 59.2 °F 100% 30.06 in 10.0 mi South 8.1 mph - N/A   Mostly Cloudy
12:55 AM 59.2 °F 59.2 °F 100% 30.05 in 10.0 mi South 6.9 mph - N/A   Scattered Clouds
1:15 AM 59.0 °F 59.0 °F 100% 30.04 in 10.0 mi South 6.9 mph - N/A   Scattered Clouds
1:35 AM 59.0 °F 59.0 °F 100% 30.04 in 7.0 mi South 5.8 mph - N/A   Scattered Clouds
1:55 AM 58.8 °F 58.8 °F 100% 30.04 in 7.0 mi South 6.9 mph - N/A   Scattered Clouds
2:15 AM 59.0 °F 59.0 °F 100% 30.04 in 7.0 mi South 6.9 mph - N/A   Scattered Clouds
2:35 AM 59.0 °F 59.0 °F 100% 30.03 in 7.0 mi South 5.8 mph - N/A   Overcast
2:55 AM 58.5 °F 58.5 °F 100% 30.03 in 5.0 mi South 4.6 mph - N/A   Overcast
3:15 AM 57.9 °F 57.9 °F 100% 30.03 in 4.0 mi SSW 3.5 mph - N/A   Mist
3:35 AM 57.6 °F 57.6 °F 100% 30.03 in 5.0 mi SSW 3.5 mph - N/A   Mostly Cloudy
3:55 AM 58.1 °F 58.1 °F 100% 30.03 in 5.0 mi SSW 3.5 mph - N/A   Overcast
4:15 AM 57.4 °F 57.4 °F 100% 30.01 in 2.5 mi SSE 3.5 mph - N/A   Overcast
4:35 AM 57.6 °F 57.6 °F 100% 30.01 in 4.0 mi South 4.6 mph - N/A   Mostly Cloudy
4:55 AM 58.5 °F 58.5 °F 100% 30.00 in 5.0 mi South 6.9 mph - N/A   Overcast
5:15 AM 59.0 °F 59.0 °F 100% 30.00 in 7.0 mi South 6.9 mph - N/A   Scattered Clouds
5:35 AM 59.4 °F 59.4 °F 100% 29.99 in 5.0 mi South 3.5 mph - N/A   Scattered Clouds
5:55 AM 59.4 °F 59.4 °F 100% 29.99 in 5.0 mi South 4.6 mph - N/A   Mostly Cloudy
6:15 AM 60.4 °F 60.4 °F 100% 29.98 in 5.0 mi South 6.9 mph - N/A   Overcast
6:35 AM 60.8 °F 60.8 °F 100% 29.99 in 5.0 mi South 4.6 mph - N/A   Overcast
6:55 AM 61.2 °F 61.2 °F 100% 29.99 in 7.0 mi SSW 4.6 mph - N/A   Unknown
7:15 AM 61.9 °F 61.9 °F 100% 29.99 in 4.0 mi South 4.6 mph - N/A   Overcast
7:35 AM 62.8 °F 62.8 °F 100% 30.00 in 10.0 mi SSW 6.9 mph - N/A   Overcast
7:55 AM 63.5 °F 63.5 °F 100% 30.00 in 10.0 mi SSW 9.2 mph - N/A   Overcast
8:15 AM 63.9 °F 63.9 °F 100% 30.00 in 10.0 mi South 10.4 mph - N/A   Overcast
8:35 AM 64.0 °F 64.0 °F 100% 30.01 in 10.0 mi SSW 9.2 mph 16.1 mph N/A   Overcast
8:55 AM 64.0 °F 64.0 °F 100% 30.02 in 10.0 mi SSW 9.2 mph - N/A   Overcast
9:15 AM 64.6 °F 64.6 °F 100% 30.02 in 10.0 mi SSW 5.8 mph - N/A   Overcast
9:35 AM 64.9 °F 64.9 °F 100% 30.01 in 10.0 mi South 9.2 mph - N/A   Overcast
9:55 AM 65.8 °F 65.8 °F 100% 30.02 in 10.0 mi SSW 6.9 mph - N/A   Overcast
10:15 AM 66.4 °F 66.4 °F 100% 30.02 in 10.0 mi SSW 5.8 mph - N/A   Overcast
10:35 AM 67.8 °F 67.6 °F 99% 30.01 in 10.0 mi SSW 6.9 mph - N/A   Mostly Cloudy
10:55 AM 69.1 °F 66.0 °F 90% 30.00 in 10.0 mi SSW 8.1 mph - N/A   Scattered Clouds
11:15 AM 69.4 °F 67.6 °F 94% 30.00 in 10.0 mi SSW 5.8 mph - N/A   Clear
11:35 AM 69.8 °F 68.9 °F 97% 30.00 in 10.0 mi SW 8.1 mph - N/A   Unknown
11:55 AM 69.8 °F 69.8 °F 100% 29.98 in 10.0 mi WSW 6.9 mph - N/A   Unknown
12:15 PM 70.5 °F 62.1 °F 74% 29.97 in 10.0 mi WSW 4.6 mph - N/A   Unknown
12:35 PM 69.4 °F 62.2 °F 78% 29.96 in 10.0 mi WNW 3.5 mph - N/A   Unknown
12:55 PM 68.7 °F 62.6 °F 81% 29.96 in 10.0 mi NW 11.5 mph 17.3 mph N/A   Unknown
1:15 PM 65.1 °F 65.1 °F 100% 29.95 in 2.5 mi North 6.9 mph - 0.02 in   Heavy Drizzle
1:35 PM 64.4 °F 64.4 °F 100% 29.94 in 10.0 mi SE 3.5 mph - 0.02 in   Unknown
1:55 PM 64.8 °F 64.8 °F 100% 29.93 in 10.0 mi SSE 3.5 mph - 0.02 in   Unknown
2:15 PM 64.9 °F 64.9 °F 100% 29.93 in 10.0 mi Calm Calm - N/A   Unknown
2:35 PM 64.9 °F 64.9 °F 100% 29.93 in 5.0 mi Calm Calm - N/A   Mist
2:55 PM 64.4 °F 64.4 °F 100% 29.93 in 5.0 mi NNE 3.5 mph - N/A   Mist
3:15 PM 64.0 °F 64.0 °F 100% 29.93 in 3.0 mi Calm Calm - N/A Rain Light Rain
3:35 PM 64.4 °F 64.4 °F 100% 29.92 in 2.0 mi Calm Calm - 0.06 in Rain Light Rain
3:55 PM 63.9 °F 63.9 °F 100% 29.92 in 3.0 mi North 3.5 mph - 0.06 in   Drizzle
4:15 PM 64.4 °F 64.4 °F 100% 29.95 in 1.8 mi NW 3.5 mph - 0.24 in Rain Rain
4:35 PM 64.0 °F 64.0 °F 100% 29.94 in 4.0 mi Calm Calm - 0.29 in Rain Rain
4:55 PM 63.5 °F 63.5 °F 100% 29.95 in 0.8 mi Calm Calm - 0.34 in Rain Rain
5:15 PM 58.6 °F 58.6 °F 100% 29.97 in 5.0 mi North 15.0 mph - 0.04 in Rain Light Rain
5:35 PM 56.8 °F 56.8 °F 100% 29.99 in 10.0 mi North 15.0 mph 20.7 mph 0.05 in Rain Light Rain
5:55 PM 55.9 °F 55.9 °F 100% 30.00 in 10.0 mi North 12.7 mph 20.7 mph 0.05 in   Unknown
6:15 PM 55.8 °F 55.8 °F 100% 30.02 in 10.0 mi North 10.4 mph - N/A Rain Rain
6:35 PM 55.4 °F 55.4 °F 100% 30.03 in 10.0 mi North 13.8 mph 18.4 mph 0.01 in Rain Rain
6:55 PM 54.5 °F 54.5 °F 100% 30.04 in 10.0 mi North 16.1 mph - 0.01 in Rain Rain
7:15 PM 53.8 °F 53.8 °F 100% 30.05 in 10.0 mi North 12.7 mph 19.6 mph N/A   Unknown
7:35 PM 53.6 °F 53.6 °F 100% 30.06 in 10.0 mi North 10.4 mph - N/A   Unknown
7:55 PM 53.1 °F 53.1 °F 100% 30.07 in 10.0 mi North 11.5 mph 18.4 mph N/A Rain Rain
8:15 PM 52.5 °F 52.5 °F 100% 30.08 in 10.0 mi North 10.4 mph - N/A Rain Rain
8:35 PM 52.2 °F 52.2 °F 100% 30.08 in 10.0 mi NNE 8.1 mph - 0.01 in   Unknown
8:55 PM 52.2 °F 52.2 °F 100% 30.08 in 10.0 mi NNE 6.9 mph - 0.01 in   Unknown
9:15 PM 52.2 °F 52.2 °F 100% 30.08 in 10.0 mi NNE 6.9 mph - N/A Rain Light Rain
9:35 PM 52.0 °F 52.0 °F 100% 30.08 in 10.0 mi North 4.6 mph - N/A   Light Drizzle
9:55 PM 51.8 °F 51.8 °F 100% 30.09 in 10.0 mi North 9.2 mph - N/A   Unknown
10:15 PM 51.8 °F 51.8 °F 100% 30.10 in 10.0 mi North 8.1 mph - N/A   Unknown
10:55 PM 51.1 °F 51.1 °F 100% 30.09 in 10.0 mi NNE 8.1 mph - N/A   Unknown
11:15 PM 50.9 °F 50.9 °F 100% 30.10 in 10.0 mi North 6.9 mph - N/A   Unknown
11:35 PM 50.4 °F 50.4 °F 100% 30.10 in 10.0 mi North 11.5 mph - N/A   Unknown
11:55 PM 49.5 °F 49.5 °F 100% 30.10 in 10.0 mi North 13.8 mph - N/A   Unknown